Dumas, TX

2:08 PM CDT on March 29, 2017 (GMT -0500)
Moore County

Weather History for KDUX - April, 2012

Change the Weather History Date:

Monday, April 30, 2012

  Actual Average (KDHT) Record (KDHT)
Temperature  
Mean Temperature 60 °F -  
Max Temperature 77 °F 71 °F 96 °F (2013)
Min Temperature 42 °F 41 °F 26 °F (1950)
Degree Days  
Heating Degree Days 6    
Growing Degree Days 10 (Base 50)    
Moisture  
Dew Point 54 °F    
Average Humidity 81    
Maximum Humidity 100    
Minimum Humidity 47    
Precipitation  
Precipitation 0.00 in - - ()
Sea Level Pressure  
Sea Level Pressure 29.93 in    
Wind  
Wind Speed 4 mph (SE)    
Max Wind Speed 18 mph    
Max Gust Speed 24 mph    
Visibility 9 miles    
Events      
Averages and records for this station are not official NWS values.
T = Trace of Precipitation, MM = Missing Value Source: NWS Daily Summary

Daily Weather History Graph

Daily Weather History Graph

Search for Another Location

Airport or City:

Trip Planner

Search our weather history database for the weather conditions in past years. The results will help you decide how hot, cold, wet, or windy it might be!

Date:

Astronomy

Apr. 30, 2012 Rise Set
Actual Time 6:56 AM CDT 8:34 PM CDT
Civil Twilight 6:28 AM CDT 9:02 PM CDT
Nautical Twilight 5:55 AM CDT 9:35 PM CDT
Astronomical Twilight 5:21 AM CDT 10:10 PM CDT
Moon 2:45 PM CDT (4/30) 3:09 AM CDT (4/30)
Length of Visible Light 14h 33m
Length of Day
13h 38m
Waxing Gibbous, 64% of the Moon is Illuminated
Apr 30
Waxing Gibbous
May 5
Full
May 12
Last Quarter
May 20
New
May 28
First Quarter

Hourly Weather History & Observations

Time (CDT) Temp. Windchill Dew Point Humidity Pressure Visibility Wind Dir Wind Speed Gust Speed Precip Events Conditions
12:15 AM 44.6 °F 39.7 °F 42.8 °F 93% 29.96 in 10.0 mi East 9.2 mph - N/A   Scattered Clouds
12:35 AM 42.8 °F 39.3 °F 42.8 °F 100% 29.97 in 10.0 mi ENE 5.8 mph - N/A   Clear
12:55 AM 46.4 °F - 44.6 °F 93% 29.98 in 10.0 mi Calm Calm - N/A   Scattered Clouds
1:15 AM 46.4 °F - 44.6 °F 93% 29.97 in 10.0 mi Calm Calm - N/A   Mostly Cloudy
1:35 AM 46.4 °F - 46.4 °F 100% 29.97 in 10.0 mi Calm Calm - N/A   Mostly Cloudy
1:55 AM 48.2 °F - 46.4 °F 93% 29.98 in 10.0 mi Calm Calm - N/A   Overcast
2:15 AM 50.0 °F - 48.2 °F 94% 29.96 in 10.0 mi Calm Calm - N/A   Mostly Cloudy
2:35 AM 50.0 °F - 48.2 °F 94% 29.96 in 10.0 mi Calm Calm - N/A   Scattered Clouds
2:55 AM 51.8 °F - 50.0 °F 94% 29.95 in 10.0 mi Calm Calm - N/A   Scattered Clouds
3:15 AM 51.8 °F - 50.0 °F 94% 29.95 in 10.0 mi Calm Calm - N/A   Scattered Clouds
3:35 AM 51.8 °F - 50.0 °F 94% 29.93 in 10.0 mi Calm Calm - N/A   Scattered Clouds
3:55 AM 51.8 °F - 50.0 °F 94% 29.93 in 10.0 mi Calm Calm - N/A   Clear
4:15 AM 51.8 °F - 50.0 °F 94% 29.93 in 10.0 mi Calm Calm - N/A   Clear
4:35 AM 51.8 °F - 50.0 °F 94% 29.95 in 10.0 mi Calm Calm - N/A   Clear
4:55 AM 51.8 °F - 50.0 °F 94% 29.98 in 10.0 mi Calm Calm - N/A   Clear
5:15 AM 51.8 °F - 51.8 °F 100% 29.98 in 10.0 mi Calm Calm - N/A   Mostly Cloudy
5:35 AM 51.8 °F - 51.8 °F 100% 29.98 in 7.0 mi Calm Calm - N/A   Overcast
5:55 AM 53.6 °F - 51.8 °F 94% 29.98 in 7.0 mi Calm Calm - N/A   Overcast
6:15 AM 53.6 °F - 51.8 °F 94% 29.98 in 7.0 mi Calm Calm - N/A   Overcast
6:35 AM 53.6 °F - 51.8 °F 94% 29.98 in 7.0 mi Calm Calm - N/A   Overcast
6:55 AM 53.6 °F - 51.8 °F 94% 29.99 in 10.0 mi Calm Calm - N/A   Overcast
7:15 AM 53.6 °F - 53.6 °F 100% 30.00 in 10.0 mi Calm Calm - N/A   Overcast
7:35 AM 53.6 °F - 53.6 °F 100% 30.00 in 10.0 mi Calm Calm - N/A   Overcast
7:55 AM 53.6 °F - 53.6 °F 100% 30.01 in 10.0 mi Calm Calm - N/A   Overcast
8:15 AM 53.6 °F - 53.6 °F 100% 30.02 in 7.0 mi Calm Calm - N/A   Overcast
8:35 AM 53.6 °F - 53.6 °F 100% 30.02 in 7.0 mi Calm Calm - N/A   Overcast
8:55 AM 53.6 °F - 53.6 °F 100% 30.02 in 5.0 mi Calm Calm - N/A   Overcast
9:15 AM 53.6 °F - 53.6 °F 100% 30.02 in 4.0 mi Calm Calm - N/A   Overcast
9:35 AM 53.6 °F - 53.6 °F 100% 30.02 in 5.0 mi Calm Calm - N/A   Overcast
9:55 AM 55.4 °F - 53.6 °F 94% 30.02 in 7.0 mi Calm Calm - N/A   Overcast
10:15 AM 55.4 °F - 53.6 °F 94% 30.02 in 7.0 mi Calm Calm - N/A   Overcast
10:35 AM 55.4 °F - 53.6 °F 94% 30.02 in 7.0 mi Calm Calm - N/A   Overcast
10:55 AM 57.2 °F - 55.4 °F 94% 30.02 in 7.0 mi Calm Calm - N/A   Overcast
11:15 AM 59.0 °F - 55.4 °F 88% 30.02 in 10.0 mi Calm Calm - N/A   Overcast
11:35 AM 60.8 °F - 57.2 °F 88% 30.01 in 10.0 mi Calm Calm - N/A   Overcast
11:55 AM 60.8 °F - 59.0 °F 94% 30.01 in 10.0 mi Calm Calm - N/A   Overcast
12:15 PM 62.6 °F - 59.0 °F 88% 30.00 in 10.0 mi Calm Calm - N/A   Mostly Cloudy
12:35 PM 62.6 °F - 59.0 °F 88% 30.00 in 10.0 mi Calm Calm - N/A   Mostly Cloudy
12:55 PM 64.4 °F - 59.0 °F 83% 29.99 in 10.0 mi Calm Calm - N/A   Overcast
1:15 PM 66.2 °F - 60.8 °F 83% 29.98 in 10.0 mi Calm Calm - N/A   Mostly Cloudy
1:35 PM 66.2 °F - 59.0 °F 78% 29.97 in 10.0 mi Calm Calm - N/A   Overcast
1:55 PM 69.8 °F - 59.0 °F 68% 29.96 in 10.0 mi Calm Calm - N/A   Scattered Clouds
2:15 PM 71.6 °F - 60.8 °F 69% 29.95 in 10.0 mi Calm Calm - N/A   Scattered Clouds
2:35 PM 71.6 °F - 60.8 °F 69% 29.95 in 10.0 mi Calm Calm - N/A   Scattered Clouds
2:55 PM 73.4 °F - 60.8 °F 65% 29.94 in 10.0 mi South 10.4 mph 18.4 mph N/A   Scattered Clouds
3:15 PM 73.4 °F - 59.0 °F 61% 29.93 in 7.0 mi SE 13.8 mph 17.3 mph N/A   Clear
3:35 PM 73.4 °F - 59.0 °F 61% 29.92 in 10.0 mi SSE 12.7 mph 17.3 mph N/A   Clear
3:55 PM 77.0 °F - 59.0 °F 54% 29.91 in 10.0 mi SE 15.0 mph 18.4 mph N/A   Scattered Clouds
4:15 PM 77.0 °F - 57.2 °F 50% 29.90 in 10.0 mi SE 15.0 mph 23.0 mph N/A   Clear
4:35 PM 77.0 °F - 55.4 °F 47% 29.87 in 10.0 mi SE 15.0 mph - N/A   Scattered Clouds
4:55 PM 73.4 °F - 55.4 °F 53% 29.87 in 10.0 mi SSE 11.5 mph 18.4 mph N/A   Mostly Cloudy
5:15 PM 77.0 °F - 55.4 °F 47% 29.86 in 7.0 mi SSE 15.0 mph 18.4 mph N/A   Scattered Clouds
5:35 PM 77.0 °F - 55.4 °F 47% 29.86 in 10.0 mi SE 18.4 mph 24.2 mph N/A   Scattered Clouds
5:55 PM 77.0 °F - 55.4 °F 47% 29.83 in 10.0 mi SSE 17.3 mph 21.9 mph N/A   Scattered Clouds
6:15 PM 77.0 °F - 57.2 °F 50% 29.83 in 10.0 mi SE 18.4 mph 23.0 mph N/A   Clear
6:35 PM 77.0 °F - 55.4 °F 47% 29.82 in 10.0 mi SE 15.0 mph 19.6 mph N/A   Clear
6:55 PM 75.2 °F - 59.0 °F 57% 29.81 in 10.0 mi ESE 12.7 mph - N/A   Clear
7:15 PM 73.4 °F - 59.0 °F 61% 29.81 in 10.0 mi ESE 16.1 mph - N/A   Clear
7:35 PM 73.4 °F - 59.0 °F 61% 29.79 in 10.0 mi ESE 15.0 mph - N/A   Clear
7:55 PM 71.6 °F - 59.0 °F 64% 29.79 in 10.0 mi ESE 11.5 mph - N/A   Clear
8:15 PM 69.8 °F - 59.0 °F 68% 29.78 in - ESE 11.5 mph - N/A   Clear
8:35 PM 69.8 °F - 59.0 °F 68% 29.78 in 10.0 mi ESE 13.8 mph - N/A   Clear
9:15 PM 68.0 °F - 59.0 °F 73% 29.78 in 10.0 mi ESE 10.4 mph - N/A   Clear
9:35 PM 66.2 °F - 59.0 °F 78% 29.78 in 10.0 mi SE 8.1 mph - N/A   Clear
9:55 PM 64.4 °F - 59.0 °F 83% 29.79 in 10.0 mi SE 11.5 mph - N/A   Clear
10:15 PM 64.4 °F - 59.0 °F 83% 29.79 in 10.0 mi SSE 11.5 mph - N/A   Clear
10:35 PM 64.4 °F - 55.4 °F 73% 29.81 in 10.0 mi SSE 16.1 mph - N/A   Clear
10:55 PM 62.6 °F - 53.6 °F 72% 29.82 in 10.0 mi SSE 17.3 mph - N/A   Clear
11:15 PM 62.6 °F - 55.4 °F 77% 29.83 in 10.0 mi SSE 17.3 mph - N/A   Clear
11:55 PM 62.6 °F - 55.4 °F 77% 29.83 in 10.0 mi SSE 17.3 mph - N/A   Clear